• Join FlightAware (Why Join?)
  • Login
  • US Flag 
08:07AM EST


 

Airport Tracker/Info


-or-


 

Live Flight TrackerFlight Track Log ✈ UAL1614 ✈ 09-Feb-2014 ✈ CYVR - KDEN

Flight Track Log - Related Links

Times and Time Zones

All times are in EST time to prevent confusion due to time zone crossing. See the UAL1614 flight status page for this flight to view local times or setup timezone preferences in your user account.

Time Position Orientation Groundspeed Altitude Reporting Facility
EST Latitude Longitude Course Direction KTS MPH feet Rate Location/Type
09:51AM 49.1667 -123.1667 113° Southeast 150 173 500  Level Vancouver Center
09:52AM 49.1500 -123.1167 117° Southeast 180 207 3,500 3,174 Climbing Vancouver Center
09:53AM 49.1333 -123.0167 104° East 260 299 6,900 3,273 Climbing Vancouver Center
09:54AM 48.9792 -122.7479 121° Southeast  Level FlightAware Approximate
09:54AM 49.1000 -122.9000 114° Southeast 280 322 10,100  Level Vancouver Center
09:55AM 48.9326 -122.5629 107° East  Level FlightAware Approximate
09:55AM 49.0500 -122.7833 123° Southeast 330 380 12,600  Level Vancouver Center
09:56AM 48.8859 -122.3770 111° Southeast  Level FlightAware Approximate
09:56AM 49.0167 -122.6333 109° East 410 472 15,600  Level Vancouver Center
09:57AM 48.8397 -122.1806 113° Southeast  Level FlightAware Approximate
09:58AM 48.9342 -122.2508 108° East 431 496 22,400  Level Seattle Center
09:59AM 48.8719 -122.0847 120° Southeast 448 516 24,900 2,479 Climbing Seattle Center
10:00AM 48.8081 -121.9142 120° Southeast 461 531 27,400 2,365 Climbing Seattle Center
10:01AM 48.7333 -121.7833 131° Southeast 470 541 29,000 793 Climbing Vancouver Center
10:02AM 48.6761 -121.5681 112° Southeast 474 545 29,000  Level Seattle Center
10:03AM 48.6097 -121.3953 120° Southeast 476 548 29,000  Level Seattle Center
10:04AM 48.5425 -121.2211 120° Southeast 478 550 29,000  Level Seattle Center
10:05AM 48.4756 -121.0481 120° Southeast 478 550 29,000  Level Seattle Center
10:06AM 48.4086 -120.8736 120° Southeast 479 551 29,000  Level Seattle Center
10:07AM 48.3372 -120.6964 121° Southeast 482 555 29,000  Level Seattle Center
10:08AM 48.2689 -120.5231 121° Southeast 482 555 29,000  Level Seattle Center
10:09AM 48.2014 -120.3492 120° Southeast 484 557 29,000 -50 Level Seattle Center
10:10AM 48.1306 -120.1742 121° Southeast 491 565 28,900  Descending Seattle Center
10:11AM 48.0600 -120.0003 121° Southeast 491 565 29,000 38 Climbing Seattle Center
10:13AM 47.9333 -119.6667 119° Southeast 520 598 29,000  Level Vancouver Center
10:14AM 47.8369 -119.4519 124° Southeast 518 596 29,000 -42 Level Seattle Center
10:15AM 47.7606 -119.2675 122° Southeast 523 602 28,900  Descending Seattle Center
10:16AM 47.6847 -119.0853 122° Southeast 522 601 29,000  Climbing Seattle Center
10:17AM 47.6089 -118.9019 121° Southeast 523 602 28,900  Descending Seattle Center
10:18AM 47.5317 -118.7206 122° Southeast 524 603 29,000 50 Climbing Seattle Center
10:19AM 47.4550 -118.5389 122° Southeast 524 603 29,000  Level Seattle Center
10:20AM 47.3767 -118.3547 122° Southeast 530 610 29,000  Level Seattle Center
10:22AM 47.2506 -118.0625 122° Southeast 532 612 29,000  Level Salt Lake Center
10:23AM 47.1722 -117.8808 122° Southeast 532 612 29,000  Level Salt Lake Center
10:24AM 47.0931 -117.7008 123° Southeast 530 610 29,000 -49 Level Salt Lake Center
10:25AM 47.0144 -117.5225 123° Southeast 527 606 28,900  Descending Salt Lake Center
10:26AM 46.9344 -117.3433 123° Southeast 529 609 29,000 40 Climbing Salt Lake Center
10:27AM 46.8078 -117.0592 123° Southeast 526 605 29,000  Level Seattle Center
10:29AM 46.6486 -116.7056 123° Southeast 524 603 29,000  Level Seattle Center
10:31AM 46.5683 -116.5303 124° Southeast 525 604 29,000  Level Seattle Center
10:32AM 46.4881 -116.3564 124° Southeast 523 602 29,000  Level Seattle Center
10:33AM 46.4075 -116.1800 123° Southeast 525 604 29,000 -50 Level Seattle Center
10:34AM 46.3253 -116.0061 124° Southeast 525 604 28,900  Descending Seattle Center
10:35AM 46.1944 -115.7272 124° Southeast 526 605 29,000 38 Climbing Salt Lake Center
10:36AM 46.1133 -115.5525 124° Southeast 527 606 29,000 -42 Level Salt Lake Center
10:38AM 45.9975 -115.3125 125° Southeast 525 604 28,900  Descending Seattle Center
10:38AM 45.9442 -115.2008 124° Southeast 525 604 29,000 60 Climbing Salt Lake Center
10:39AM 45.8611 -115.0269 124° Southeast 527 606 29,000  Level Salt Lake Center
10:40AM 45.7778 -114.8564 125° Southeast 524 603 29,000  Level Salt Lake Center
10:41AM 45.6772 -114.6489 125° Southeast 527 606 29,000 590 Level Salt Lake Center
10:42AM 45.5917 -114.4761 125° Southeast 531 611 30,200 1,574 Climbing Salt Lake Center
10:43AM 45.5064 -114.3014 125° Southeast 535 616 32,200 1,377 Climbing Salt Lake Center
10:44AM 45.4197 -114.1281 125° Southeast 536 617 33,000 393 Climbing Salt Lake Center
10:45AM 45.3331 -113.9550 125° Southeast 536 617 33,000  Level Salt Lake Center
10:46AM 45.2406 -113.7725 126° Southeast 537 618 33,000  Level Salt Lake Center
10:48AM 45.0714 -113.4414 126° Southeast 542 624 33,000  Level Salt Lake Center
10:49AM 44.9728 -113.2489 126° Southeast 543 625 33,000  Level Salt Lake Center
10:50AM 44.8864 -113.0828 126° Southeast 549 632 33,000  Level Salt Lake Center
10:51AM 44.7878 -112.8900 126° Southeast 545 627 33,000  Level Salt Lake Center
10:52AM 44.7017 -112.7269 127° Southeast 544 626 33,000  Level Salt Lake Center
10:53AM 44.6169 -112.5644 126° Southeast 540 621 33,000 -492 Level Salt Lake Center
10:57AM 44.3367 -112.0389 127° Southeast 527 606 31,000 -390 Descending Salt Lake Center
10:59AM 44.1578 -111.7042 127° Southeast 524 603 31,000  Level Salt Lake Center
11:00AM 44.0733 -111.5503 127° Southeast 527 606 31,000  Level Salt Lake Center
11:01AM 43.9875 -111.3950 128° Southeast 531 611 31,000  Level Salt Lake Center
11:02AM 43.9561 -111.3250 127° Southeast  Level FlightAware Approximate
11:02AM 43.8864 -111.2100 127° Southeast 539 620 31,000  Level Salt Lake Center
11:03AM 43.7992 -111.0531 128° Southeast 539 620 31,000  Level Salt Lake Center
11:05AM 43.6081 -110.7097 127° Southeast 544 626 31,000 -33 Level Salt Lake Center
11:06AM 43.5094 -110.5350 128° Southeast 541 623 30,900  Descending Salt Lake Center
11:07AM 43.4133 -110.3628 127° Southeast 544 626 31,000 33 Climbing Salt Lake Center
11:09AM 43.2233 -110.0342 128° Southeast 540 621 31,000  Level Salt Lake Center
11:11AM 43.0400 -109.7172 128° Southeast 547 629 31,000  Level Salt Lake Center
11:12AM 42.9342 -109.5350 128° Southeast 545 627 31,000  Level Salt Lake Center
11:14AM 42.7508 -109.2244 129° Southeast 550 633 31,000  Level Salt Lake Center
11:15AM 42.6456 -109.0453 129° Southeast 545 627 31,000  Level Salt Lake Center
11:16AM 42.5550 -108.8928 129° Southeast 542 624 31,000  Level Salt Lake Center
11:17AM 42.4642 -108.7417 129° Southeast 540 621 31,000  Level Salt Lake Center
11:18AM 42.3589 -108.5661 129° Southeast 538 619 31,000  Level Salt Lake Center
11:19AM 42.2681 -108.4144 129° Southeast 540 621 31,000  Level Salt Lake Center
11:20AM 42.1606 -108.2372 129° Southeast 544 626 31,000  Level Salt Lake Center
11:22AM 41.9742 -107.9356 130° Southeast 550 633 31,000  Level Salt Lake Center
11:23AM 41.8528 -107.7381 129° Southeast 537 618 31,000  Level Denver Center
11:24AM 41.7611 -107.5925 130° Southeast 534 615 31,000  Level Denver Center
11:25AM 41.6742 -107.4267 125° Southeast 489 563 31,000  Level Denver Center
11:26AM 41.6000 -107.2850 125° Southeast 486 559 31,000  Level Denver Center
11:27AM 41.5250 -107.1422 125° Southeast 489 563 31,000  Level Denver Center
11:29AM 41.3717 -106.8511 125° Southeast 505 581 31,000  Level Salt Lake Center
11:30AM 41.2914 -106.6997 125° Southeast 519 597 31,000  Level Salt Lake Center
11:32AM 41.1839 -106.4964 125° Southeast 524 603 31,000  Level Denver Center
11:33AM 41.0881 -106.3242 126° Southeast 521 600 31,000  Level Denver Center
11:35AM 40.9156 -106.0056 126° Southeast 511 588 31,000 -323 Level Denver Center
11:36AM 40.8317 -105.8514 126° Southeast 516 594 30,000 -1,561 Descending Denver Center
11:37AM 40.7511 -105.7047 126° Southeast 501 577 27,800 -2,195 Descending Denver Center
11:38AM 40.6728 -105.5642 126° Southeast 483 556 25,500 -2,081 Descending Denver Center
11:39AM 40.5964 -105.4281 126° Southeast 469 540 23,500 -1,774 Descending Denver Center
11:41AM 40.4278 -105.1819 132° Southeast 424 488 20,000 -1,606 Descending Denver Center
11:42AM 40.3278 -105.1053 150° Southeast 389 448 18,200 -1,127 Descending Denver Center
11:44AM 40.1314 -104.9483 149° Southeast 364 419 16,300 -1,297 Descending Denver Center
11:45AM 40.0439 -104.8783 149° Southeast 369 425 14,200 -2,032 Descending Denver Center
11:46AM 39.9467 -104.8092 151° Southeast 372 428 12,100 -1,065 Descending Denver Center
11:47AM 39.8544 -104.8081 179° South 340 391 12,000 -146 Descending Denver Center
11:48AM 39.7694 -104.8094 181° South 284 327 11,800 -683 Descending Denver Center
11:49AM 39.6967 -104.8117 181° South 266 306 10,600 -1,065 Descending Denver Center
11:50AM 39.6208 -104.8142 181° South 257 296 9,600 -774 Descending Denver Center
11:51AM 39.5900 -104.7422 119° Southeast 253 291 9,000 -290 Descending Denver Center
11:52AM 39.6208 -104.6769 58° Northeast 209 241 9,000 -244 Level Denver Center
11:53AM 39.6733 -104.6622 12° North 194 223 8,500 -781 Descending Denver Center
11:55AM 39.7667 -104.6667 358° North 183 211 6,800 -929 Descending Denver TRACON
11:56AM 39.8000 -104.6667 360° North 143 165 5,900 -604 Descending Denver TRACON
11:57AM 39.8464 -104.6611 North 131 151 5,400 -380 Descending Denver Center